IWG002 LEZL-LEVC

Flight info

Callsign IWG002
Flight time 0h 53m
Altitude 34000
Route BUDIT M445 ETURA T252 XEBAR M985 ASTRO
Aircraft A20N/M-SDE2E3FGHIJ1RWXY/LB1

Departure

Time 2026-04-22 15:25
Airport Seville Airport (LEZL)

Arrival

Time 2026-04-22 16:19
Airport Valencia Airport (LEVC)
Time Latitude Longitude Altitude Speed Heading
2026-04-22 15:19 37.42095 -5.89857 100 ft 0 kts 314°
2026-04-22 15:20 37.42092 -5.89870 100 ft 3 kts 228°
2026-04-22 15:21 37.41999 -5.89876 100 ft 17 kts 135°
2026-04-22 15:21 37.41987 -5.89677 101 ft 26 kts 92°
2026-04-22 15:21 37.41988 -5.89432 99 ft 29 kts 89°
2026-04-22 15:21 37.41983 -5.89185 104 ft 28 kts 90°
2026-04-22 15:22 37.41982 -5.88939 107 ft 28 kts 90°
2026-04-22 15:22 37.41981 -5.88705 114 ft 26 kts 91°
2026-04-22 15:22 37.41983 -5.88474 114 ft 27 kts 88°
2026-04-22 15:22 37.41985 -5.88236 113 ft 27 kts 90°
2026-04-22 15:23 37.41986 -5.87987 111 ft 30 kts 89°
2026-04-22 15:23 37.41988 -5.87723 113 ft 29 kts 90°
2026-04-22 15:23 37.41970 -5.87509 113 ft 25 kts 116°
2026-04-22 15:23 37.41898 -5.87433 115 ft 0 kts 172°
2026-04-22 15:24 37.41884 -5.87434 115 ft 10 kts 186°
2026-04-22 15:24 37.41806 -5.87604 114 ft 43 kts 265°
2026-04-22 15:24 37.41799 -5.88288 115 ft 109 kts 270°
2026-04-22 15:25 37.41795 -5.89460 107 ft 157 kts 271°
2026-04-22 15:25 37.41792 -5.90853 543 ft 161 kts 264°
2026-04-22 15:25 37.41714 -5.92270 1144 ft 163 kts 264°
2026-04-22 15:25 37.41688 -5.93688 1816 ft 164 kts 274°
2026-04-22 15:26 37.42186 -5.95036 2241 ft 183 kts 314°
2026-04-22 15:26 37.43209 -5.96147 2741 ft 204 kts 320°
2026-04-22 15:26 37.44372 -5.97287 3253 ft 224 kts 322°
2026-04-22 15:26 37.45676 -5.98565 3728 ft 249 kts 321°
2026-04-22 15:27 37.47092 -5.99994 4342 ft 270 kts 320°
2026-04-22 15:27 37.48568 -6.01514 5314 ft 275 kts 316°
2026-04-22 15:27 37.50032 -6.03085 6302 ft 279 kts 315°
2026-04-22 15:27 37.51521 -6.04687 7233 ft 283 kts 316°
2026-04-22 15:28 37.53024 -6.06297 8167 ft 285 kts 315°
2026-04-22 15:28 37.54612 -6.07837 9044 ft 294 kts 327°
2026-04-22 15:28 37.56597 -6.08591 9911 ft 306 kts 353°
2026-04-22 15:28 37.58741 -6.08277 10455 ft 328 kts 17°
2026-04-22 15:29 37.60803 -6.06840 10730 ft 354 kts 40°
2026-04-22 15:29 37.62407 -6.04385 11166 ft 367 kts 63°
2026-04-22 15:29 37.63214 -6.01336 11942 ft 367 kts 84°
2026-04-22 15:30 37.63554 -5.94886 13540 ft 375 kts 86°
2026-04-22 15:30 37.63899 -5.91596 14267 ft 380 kts 84°
2026-04-22 15:30 37.64378 -5.88293 14949 ft 385 kts 81°
2026-04-22 15:30 37.64961 -5.84971 15626 ft 390 kts 79°
2026-04-22 15:31 37.65615 -5.81622 16318 ft 394 kts 78°
2026-04-22 15:31 37.66292 -5.78245 16989 ft 399 kts 78°
2026-04-22 15:31 37.66970 -5.74869 17646 ft 403 kts 77°
2026-04-22 15:31 37.67656 -5.71438 18283 ft 407 kts 77°
2026-04-22 15:32 37.68346 -5.67997 18865 ft 411 kts 77°
2026-04-22 15:32 37.69053 -5.64474 19433 ft 414 kts 77°
2026-04-22 15:32 37.69759 -5.60928 20024 ft 418 kts 77°
2026-04-22 15:32 37.70459 -5.57390 20590 ft 421 kts 77°
2026-04-22 15:33 37.71175 -5.53785 21159 ft 425 kts 77°
2026-04-22 15:33 37.71896 -5.50156 21717 ft 428 kts 76°
2026-04-22 15:33 37.72634 -5.46486 22270 ft 432 kts 75°
2026-04-22 15:33 37.73396 -5.42794 22841 ft 435 kts 74°
2026-04-22 15:34 37.74171 -5.39066 23380 ft 439 kts 75°
2026-04-22 15:34 37.74936 -5.35309 23861 ft 442 kts 75°
2026-04-22 15:34 37.75678 -5.31575 24315 ft 445 kts 76°
2026-04-22 15:34 37.76423 -5.27761 24789 ft 447 kts 76°
2026-04-22 15:35 37.76915 -5.25216 25082 ft 449 kts 76°
2026-04-22 15:35 37.77899 -5.20063 25671 ft 453 kts 76°
2026-04-22 15:35 37.78639 -5.16171 26090 ft 456 kts 76°
2026-04-22 15:35 37.79385 -5.12256 26509 ft 459 kts 76°
2026-04-22 15:36 37.80136 -5.08323 26922 ft 461 kts 76°
2026-04-22 15:36 37.80894 -5.04371 27313 ft 464 kts 76°
2026-04-22 15:36 37.81657 -5.00403 27707 ft 466 kts 76°
2026-04-22 15:36 37.82421 -4.96441 28091 ft 469 kts 76°
2026-04-22 15:37 37.83200 -4.92410 28452 ft 471 kts 76°
2026-04-22 15:37 37.83983 -4.88357 28826 ft 473 kts 76°
2026-04-22 15:37 37.84650 -4.84266 29165 ft 476 kts 82°
2026-04-22 15:37 37.84967 -4.80135 29490 ft 479 kts 86°
2026-04-22 15:38 37.85221 -4.75911 29830 ft 481 kts 85°
2026-04-22 15:38 37.85960 -4.67511 30428 ft 481 kts 70°
2026-04-22 15:38 37.86670 -4.63349 30630 ft 485 kts 82°
2026-04-22 15:39 37.86894 -4.59078 30922 ft 488 kts 89°
2026-04-22 15:39 37.86927 -4.54778 31236 ft 489 kts 89°
2026-04-22 15:39 37.87004 -4.50474 31623 ft 488 kts 86°
2026-04-22 15:39 37.87165 -4.46186 32013 ft 487 kts 86°
2026-04-22 15:40 37.87371 -4.41916 32402 ft 486 kts 84°
2026-04-22 15:40 37.87620 -4.37640 32780 ft 485 kts 84°
2026-04-22 15:40 37.87867 -4.33387 33147 ft 485 kts 85°
2026-04-22 15:40 37.88103 -4.29190 33518 ft 484 kts 85°
2026-04-22 15:41 37.88344 -4.24887 33828 ft 483 kts 85°
2026-04-22 15:41 37.88580 -4.20653 33918 ft 481 kts 85°
2026-04-22 15:41 37.89049 -4.12214 33974 ft 480 kts 85°
2026-04-22 15:42 37.89523 -4.03769 33970 ft 480 kts 85°
2026-04-22 15:42 37.89989 -3.95339 33970 ft 480 kts 85°
2026-04-22 15:43 37.90447 -3.86958 33971 ft 480 kts 85°
2026-04-22 15:43 37.90905 -3.78533 33976 ft 480 kts 85°
2026-04-22 15:44 37.91358 -3.70112 33976 ft 479 kts 85°
2026-04-22 15:44 37.91807 -3.61679 33975 ft 479 kts 85°
2026-04-22 15:45 37.92254 -3.53267 33978 ft 478 kts 85°
2026-04-22 15:45 37.92694 -3.44959 33979 ft 478 kts 85°
2026-04-22 15:46 37.93130 -3.36566 33978 ft 478 kts 85°
2026-04-22 15:46 37.93558 -3.28223 33983 ft 478 kts 85°
2026-04-22 15:47 37.93985 -3.19772 33982 ft 478 kts 85°
2026-04-22 15:47 37.94401 -3.11417 33989 ft 477 kts 85°
2026-04-22 15:48 37.94812 -3.03027 33991 ft 477 kts 86°
2026-04-22 15:48 37.95152 -2.95991 33998 ft 477 kts 86°
2026-04-22 15:49 37.95550 -2.87651 34003 ft 477 kts 86°
2026-04-22 15:49 37.95944 -2.79251 34000 ft 476 kts 86°
2026-04-22 15:50 37.96332 -2.70873 34000 ft 476 kts 86°
2026-04-22 15:50 37.96713 -2.62497 34014 ft 476 kts 86°
2026-04-22 15:51 37.97335 -2.54213 34015 ft 474 kts 75°
2026-04-22 15:51 37.98412 -2.50271 34011 ft 472 kts 62°
2026-04-22 15:51 38.00087 -2.46721 34018 ft 468 kts 50°
2026-04-22 15:52 38.04497 -2.40693 34020 ft 467 kts 43°
2026-04-22 15:52 38.08989 -2.34749 34011 ft 465 kts 44°
2026-04-22 15:53 38.13440 -2.28790 34013 ft 465 kts 44°
2026-04-22 15:53 38.17908 -2.22859 34006 ft 463 kts 40°
2026-04-22 15:54 38.20439 -2.20358 34010 ft 459 kts 29°
2026-04-22 15:54 38.23209 -2.18483 34011 ft 456 kts 20°
2026-04-22 15:54 38.29275 -2.16293 34008 ft 452 kts 10°
2026-04-22 15:55 38.35411 -2.14417 34008 ft 453 kts 11°
2026-04-22 15:55 38.41536 -2.12536 34014 ft 453 kts 10°
2026-04-22 15:56 38.47668 -2.10610 34012 ft 454 kts 15°
2026-04-22 15:56 38.50594 -2.09040 34011 ft 459 kts 26°
2026-04-22 15:56 38.53241 -2.06740 34004 ft 463 kts 38°
2026-04-22 15:57 38.55479 -2.03824 34001 ft 466 kts 49°
2026-04-22 15:57 38.57479 -2.00546 34004 ft 466 kts 50°
2026-04-22 15:57 38.61466 -1.94032 33720 ft 467 kts 49°
2026-04-22 15:58 38.63480 -1.90763 33108 ft 468 kts 50°
2026-04-22 15:58 38.65443 -1.87553 32258 ft 472 kts 50°
2026-04-22 15:58 38.67532 -1.84126 31221 ft 478 kts 50°
2026-04-22 15:58 38.69552 -1.80800 30540 ft 477 kts 50°
2026-04-22 15:59 38.71569 -1.77475 30072 ft 469 kts 50°
2026-04-22 15:59 38.73564 -1.74185 29466 ft 464 kts 50°
2026-04-22 15:59 38.75533 -1.70938 28902 ft 458 kts 50°
2026-04-22 15:59 38.77477 -1.67732 28363 ft 452 kts 50°
2026-04-22 16:00 38.79401 -1.64557 27796 ft 448 kts 50°
2026-04-22 16:00 38.81303 -1.61415 27248 ft 443 kts 50°
2026-04-22 16:00 38.83177 -1.58318 26705 ft 439 kts 50°
2026-04-22 16:00 38.85044 -1.55230 26159 ft 436 kts 50°
2026-04-22 16:01 38.86890 -1.52172 25624 ft 432 kts 50°
2026-04-22 16:01 38.88729 -1.49123 25088 ft 429 kts 50°
2026-04-22 16:01 38.90555 -1.46094 24552 ft 426 kts 50°
2026-04-22 16:01 38.92364 -1.43089 24024 ft 424 kts 50°
2026-04-22 16:02 38.94161 -1.40103 23446 ft 423 kts 50°
2026-04-22 16:02 38.95934 -1.37152 22885 ft 419 kts 50°
2026-04-22 16:02 38.97708 -1.34199 22306 ft 416 kts 50°
2026-04-22 16:02 38.99480 -1.31249 21726 ft 414 kts 50°
2026-04-22 16:03 39.01239 -1.28315 21102 ft 412 kts 50°
2026-04-22 16:03 39.02977 -1.25417 20563 ft 410 kts 50°
2026-04-22 16:03 39.04716 -1.22512 19980 ft 408 kts 51°
2026-04-22 16:03 39.06439 -1.19630 19414 ft 406 kts 51°
2026-04-22 16:04 39.08164 -1.16745 18832 ft 405 kts 51°
2026-04-22 16:04 39.09884 -1.13864 18278 ft 403 kts 51°
2026-04-22 16:04 39.11568 -1.11040 17688 ft 400 kts 51°
2026-04-22 16:04 39.13250 -1.08215 17173 ft 396 kts 51°
2026-04-22 16:05 39.14918 -1.05411 16637 ft 392 kts 51°
2026-04-22 16:05 39.16573 -1.02627 16103 ft 390 kts 51°
2026-04-22 16:05 39.18222 -0.99860 15544 ft 388 kts 51°
2026-04-22 16:05 39.19864 -0.97093 14901 ft 389 kts 51°
2026-04-22 16:06 39.20741 -0.95614 14496 ft 393 kts 52°
2026-04-22 16:06 39.22205 -0.93139 14130 ft 388 kts 52°
2026-04-22 16:06 39.23763 -0.90503 13966 ft 374 kts 52°
2026-04-22 16:06 39.25301 -0.87901 13776 ft 355 kts 52°
2026-04-22 16:07 39.26748 -0.85451 13569 ft 337 kts 52°
2026-04-22 16:07 39.28134 -0.83103 13377 ft 321 kts 52°
2026-04-22 16:07 39.29515 -0.80954 12956 ft 313 kts 39°
2026-04-22 16:07 39.31355 -0.79534 12373 ft 305 kts 14°
2026-04-22 16:08 39.33382 -0.79229 11817 ft 295 kts 349°
2026-04-22 16:08 39.35281 -0.80043 11242 ft 284 kts 322°
2026-04-22 16:08 39.36718 -0.81720 10677 ft 277 kts 308°
2026-04-22 16:08 39.38087 -0.83482 10163 ft 279 kts 316°
2026-04-22 16:09 39.39696 -0.84900 9687 ft 281 kts 328°
2026-04-22 16:09 39.41482 -0.85891 9189 ft 282 kts 338°
2026-04-22 16:09 39.43374 -0.86535 8764 ft 279 kts 345°
2026-04-22 16:09 39.45296 -0.86929 8323 ft 277 kts 350°
2026-04-22 16:10 39.47231 -0.87122 7989 ft 282 kts 355°
2026-04-22 16:10 39.49189 -0.87136 7659 ft 282 kts 359°
2026-04-22 16:10 39.50514 -0.87053 7404 ft 280 kts
2026-04-22 16:10 39.53065 -0.86713 6939 ft 274 kts
2026-04-22 16:11 39.54893 -0.86305 6823 ft 260 kts
2026-04-22 16:11 39.56599 -0.85766 6694 ft 245 kts 12°
2026-04-22 16:11 39.58225 -0.85111 6344 ft 246 kts 19°
2026-04-22 16:11 39.59780 -0.84218 6009 ft 247 kts 36°
2026-04-22 16:12 39.60799 -0.82450 5519 ft 247 kts 77°
2026-04-22 16:12 39.60825 -0.80290 5175 ft 238 kts 106°
2026-04-22 16:12 39.60311 -0.78286 4872 ft 232 kts 116°
2026-04-22 16:12 39.59636 -0.76409 4551 ft 226 kts 119°
2026-04-22 16:13 39.58966 -0.74624 4256 ft 213 kts 119°
2026-04-22 16:13 39.58334 -0.72950 4000 ft 199 kts 119°
2026-04-22 16:13 39.57750 -0.71402 3753 ft 184 kts 119°
2026-04-22 16:13 39.57200 -0.69957 3515 ft 174 kts 118°
2026-04-22 16:14 39.56684 -0.68590 3305 ft 163 kts 118°
2026-04-22 16:14 39.56189 -0.67285 3106 ft 160 kts 118°
2026-04-22 16:14 39.55703 -0.66015 2893 ft 156 kts 117°
2026-04-22 16:14 39.55237 -0.64780 2694 ft 154 kts 117°
2026-04-22 16:15 39.54751 -0.63498 2496 ft 161 kts 117°
2026-04-22 16:15 39.54281 -0.62254 2297 ft 145 kts 116°
2026-04-22 16:15 39.53856 -0.61132 2101 ft 134 kts 116°
2026-04-22 16:15 39.53463 -0.60098 1948 ft 126 kts 116°
2026-04-22 16:16 39.53124 -0.59207 1820 ft 136 kts 116°
2026-04-22 16:16 39.52720 -0.58132 1635 ft 127 kts 115°
2026-04-22 16:16 39.52344 -0.57132 1469 ft 127 kts 117°
2026-04-22 16:16 39.51942 -0.56085 1307 ft 128 kts 116°
2026-04-22 16:17 39.51559 -0.55077 1147 ft 126 kts 117°
2026-04-22 16:17 39.51162 -0.54034 964 ft 132 kts 115°
2026-04-22 16:17 39.50748 -0.52941 800 ft 135 kts 115°
2026-04-22 16:17 39.50349 -0.51889 621 ft 126 kts 115°
2026-04-22 16:18 39.49962 -0.50868 434 ft 128 kts 112°
2026-04-22 16:18 39.49566 -0.49826 276 ft 130 kts 113°
2026-04-22 16:18 39.49222 -0.48916 213 ft 96 kts 117°
2026-04-22 16:18 39.48978 -0.48276 214 ft 73 kts 116°
2026-04-22 16:19 39.48791 -0.47786 213 ft 42 kts 116°
2026-04-22 16:19 39.48708 -0.47565 217 ft 14 kts 116°
2026-04-22 16:19 39.48664 -0.47446 213 ft 15 kts 111°
2026-04-22 16:19 39.48660 -0.47301 211 ft 17 kts 69°
2026-04-22 16:20 39.48744 -0.47188 215 ft 19 kts 14°
2026-04-22 16:20 39.48862 -0.47232 214 ft 16 kts 344°
2026-04-22 16:20 39.48962 -0.47296 215 ft 11 kts 346°
2026-04-22 16:20 39.49019 -0.47284 210 ft 0 kts 18°